Location: Sevilla
(37.3933°N, 5.9839°W)
Time: 06:01:04
(UTC+02:00)

Transit 2A Rocket - Pass Details

Date: 27 June 2024
Orbit: 582 x 910 km, 66.7° (Epoch: 15 July)

Event Time Altitude Azimuth Distance (km) Brightness Sun altitude
Rises 21:01:30 0° 207° (SSW) 3,037 8.2 7.5°
Reaches altitude 10° 21:03:42 10° 208° (SSW) 2,173 7.4 7.1°
Maximum altitude 21:08:41 87° 299° (WNW) 765 5.2 6.2°
Drops below altitude 10° 21:14:14 10° 27° (NNE) 2,409 7.6 5.2°
Sets 21:16:48 0° 28° (NNE) 3,394 8.3 4.8°
